[[{"header":{"parameterUnit":"m.s-1","parameterCategory":1,"la1":30.2991,"la2":30.254,"lo1":-89.0895,"lo2":-89.0444,"dy":0.0017,"dx":0.0017,"nx":28,"ny":28,"refTime":"2025-06-04T03:00:00:Z","depth":0,"parameterNumber":2,"parameterNumberName":"U-component_of_WINDS"},"data":[0,0,0,0,0,0,0,0,0,0,0,0,0,0,0,0,0,0,0,0,0,0,0,0,0,0,0,0,0,0,0,0,0,0,0,0,0,0,0,0,0,0,0,0,0,0,0,0,0,0,0,0,0,0,0,0,0,0,0.7095,0.7096,0,0.7128,0.7129,0.7129,0.7104,0.7103,0.7102,0.7101,0.7137,0.7139,0.7141,0,0,0,0,0,0,0,0,0,0,0,0,0,0.7013,0.7015,0.7095,0.7096,0.7096,0.7128,0.7129,0.7129,0.7105,0.7103,0.7102,0.7101,0.7136,0.7139,0.7141,0,0,0,0,0,0,0,0,0,0,0,0,0,0.7048,0.7015,0.7095,0.7088,0.7087,0.7128,0.7129,0.7129,0.7105,0.7103,0.7102,0.71,0.7136,0.7139,0.7141,0.7192,0,0,0.715,0.7152,0,0,0,0,0,0,0,0,0.7046,0.7051,0.7088,0.7088,0.7088,0.7111,0.7113,0.7151,0.7105,0.7098,0.7101,0.7099,0.713,0.7133,0.7143,0.7194,0.7196,0.7151,0.7153,0.7154,0.7155,0,0,0,0,0,0,0,0.7044,0.7049,0.7108,0.7089,0.7089,0.7083,0.7087,0.712,0.7123,0.7099,0.7097,0.7101,0.7129,0.714,0.7144,0.7196,0.7151,0.7153,0.7155,0.7156,0.7292,0.7294,0,0,0,0,0,0,0.7042,0.7048,0.7107,0.7109,0.7062,0.7086,0.709,0.7105,0.7122,0.7123,0.7103,0.71,0.7136,0.714,0.7145,0.7206,0.7154,0.7157,0.7158,0.729,0.7293,0.7295,0,0,0,0,0,0,0.704,0.7047,0.7106,0.7078,0.7085,0.7089,0.7107,0.7106,0.7117,0.7125,0.7126,0.7113,0.7135,0.7141,0.7181,0.7207,0.7158,0.7161,0.7288,0.7291,0.7294,0.7329,0,0,0,0,0,0,0.7038,0.7047,0.7065,0.7079,0.7087,0.7141,0.7108,0.7108,0.7122,0.7119,0.7135,0.7136,0.7134,0.7177,0.7184,0.721,0.7163,0.7286,0.7289,0.7293,0.7325,0.7332,0.7339,0,0,0,0,0,0.7035,0.7074,0.7066,0.7074,0.711,0.7142,0.7147,0.7143,0.7124,0.7144,0.7149,0.7136,0.7203,0.7181,0.7189,0.7216,0.7284,0.7288,0.7292,0.7322,0.7331,0.7338,0,0,0,0,0,0,0.7063,0.7075,0.7067,0.7111,0.7126,0.7138,0.7162,0.7152,0.7173,0.7169,0.7164,0.7168,0.721,0.7217,0.7192,0.7267,0.7241,0.7247,0.7261,0.7269,0.7276,0.7273,0.7165,0,0,0,0,0,0.7075,0.71,0.7109,0.7147,0.7155,0.7157,0.7171,0.7167,0.7182,0.7188,0.7197,0.7212,0.7237,0.7254,0.7277,0.7327,0.733,0.735,0.7356,0.7362,0.7367,0.7395,0.7404,0.7308,0.7308,0.7308,0,0,0.7099,0.7108,0.7124,0.7153,0.7164,0.7191,0.7163,0.7191,0.7211,0.7193,0.7231,0.7238,0.7256,0.7301,0.7322,0.7309,0.7394,0.7367,0.7371,0.7373,0.74,0.7409,0.7417,0.7311,0.731,0.731,0,0,0.7156,0.7165,0.7199,0.721,0.7227,0.7229,0.7237,0.7251,0.7255,0.7293,0.728,0.7305,0.7347,0.736,0.7373,0.7437,0.7426,0.7445,0.7479,0.7507,0.7514,0.7521,0.7544,0.7553,0.745,0.745,0.745,0,0.7183,0.7222,0.7217,0.7247,0.7261,0.7246,0.728,0.7292,0.7316,0.7326,0.7311,0.7365,0.7376,0.7425,0.7441,0.7451,0.7461,0.7443,0.7513,0.752,0.7526,0.7549,0.7557,0.7452,0.7452,0.7452,0.7452,0,0.7256,0.7283,0.7308,0.7331,0.7348,0.738,0.7381,0.7399,0.7394,0.7398,0.7438,0.7451,0.7477,0.7488,0.7484,0.7537,0.7529,0.7514,0.7487,0.7538,0.7559,0.7567,0.7456,0.7455,0.7454,0.7454,0,0,0.733,0.7351,0.7361,0.7372,0.739,0.7411,0.7444,0.7469,0.7485,0.7502,0.753,0.7567,0.7554,0.7568,0.7565,0.7589,0.7641,0.7572,0.7572,0.7584,0.7701,0.7712,0.7722,0.7634,0.7635,0.7637,0.77,0,0.7388,0.7443,0.7441,0.7494,0.7519,0.7506,0.7535,0.755,0.7555,0.7578,0.7584,0.761,0.7591,0.7599,0.7623,0.7629,0.7664,0.7625,0.766,0.7661,0.7656,0.7733,0.7744,0.7803,0.7708,0.771,0.7711,0,0.7462,0.7483,0.7538,0.7554,0.7564,0.759,0.7614,0.7636,0.7654,0.7656,0.7672,0.7666,0.77,0.7673,0.7721,0.7694,0.7709,0.7714,0.7717,0.7719,0.7689,0.7738,0.7822,0.7831,0.7723,0.7722,0.7721,0,0.7512,0.7553,0.7591,0.7601,0.7621,0.7639,0.7648,0.7664,0.768,0.7701,0.7712,0.7737,0.7751,0.7771,0.7772,0.7752,0.7821,0.7793,0.7824,0.7824,0.7838,0.7837,0.7926,0.7848,0.7848,0.7848,0.7847,0,0.7576,0.7611,0.7614,0.7637,0.7676,0.7674,0.7712,0.772,0.7734,0.776,0.7751,0.7775,0.7776,0.7801,0.7802,0.7842,0.7849,0.7852,0.7852,0.7852,0.7852,0.7861,0.7857,0.785,0.7849,0.7849,0.7849,0,0.7637,0.764,0.7682,0.7697,0.7702,0.773,0.7744,0.7767,0.7772,0.7804,0.7812,0.782,0.7849,0.7853,0.7887,0.7888,0.7936,0.7932,0.793,0.7929,0.796,0.7957,0.8057,0.8071,0.7985,0.7985,0.7986,0,0.7678,0.7704,0.7723,0.7739,0.7749,0.7776,0.7792,0.7792,0.781,0.7833,0.7854,0.7882,0.7905,0.7953,0.7963,0.7989,0.7986,0.8019,0.7989,0.799,0.7986,0.7985,0.7988,0.8025,0.8025,0.8026,0.8027,0,0.775,0.7751,0.7775,0.78,0.782,0.7839,0.7858,0.7872,0.7874,0.7895,0.7925,0.7943,0.7979,0.8008,0.8034,0.8045,0.8037,0.8036,0.8045,0.8046,0.8044,0.8045,0.7946,0.8034,0.8033,0.8033,0.8032,0.8032,0.7802,0.7825,0.7842,0.787,0.7884,0.7902,0.7925,0.7933,0.7958,0.7986,0.7985,0.8019,0.8038,0.8073,0.8085,0.8112,0.8101,0.8113,0.8117,0.812,0.8123,0.804,0.8117,0.8117,0.8117,0.8117,0.8116,0,0.7874,0.7885,0.791,0.7936,0.7958,0.7949,0.797,0.7989,0.8018,0.8036,0.8059,0.8095,0.8123,0.8136,0.8164,0.8183,0.818,0.8191,0.8189,0.8192,0.8131,0.8121,0.8193,0.8193,0.8193,0.8193,0.8193,0.8193,0.7914,0.7953,0.7956,0.8003,0.8013,0.8046,0.8059,0.8076,0.809,0.813,0.8154,0.8162,0.8178,0.8208,0.8234,0.8237,0.8248,0.826,0.8261,0.8204,0.8196,0.8189,0.8179,0.8262,0.8262,0.832,0.8321,0.8321]},{"header":{"parameterUnit":"m.s-1","parameterCategory":1,"la1":30.2991,"la2":30.254,"lo1":-89.0895,"lo2":-89.0444,"dy":0.0017,"dx":0.0017,"nx":28,"ny":28,"refTime":"2025-06-04T03:00:00:Z","depth":0,"parameterNumber":3,"parameterNumberName":"V-component_of_WINDS"},"data":[0,0,0,0,0,0,0,0,0,0,0,0,0,0,0,0,0,0,0,0,0,0,0,0,0,0,0,0,0,0,0,0,0,0,0,0,0,0,0,0,0,0,0,0,0,0,0,0,0,0,0,0,0,0,0,0,0,0,0.3657,0.3657,0,0.3708,0.3709,0.3709,0.3728,0.3728,0.3728,0.3728,0.3786,0.3787,0.3789,0,0,0,0,0,0,0,0,0,0,0,0,0,0.3579,0.358,0.3657,0.3657,0.3658,0.3708,0.3709,0.371,0.3729,0.3728,0.3728,0.3728,0.3785,0.3787,0.3789,0,0,0,0,0,0,0,0,0,0,0,0,0,0.362,0.358,0.3657,0.3673,0.3675,0.3708,0.3709,0.371,0.3729,0.3728,0.3728,0.3728,0.3785,0.3787,0.379,0.3811,0,0,0.3797,0.3799,0,0,0,0,0,0,0,0,0.3617,0.3623,0.367,0.3672,0.3675,0.3712,0.3703,0.3744,0.3729,0.3709,0.3728,0.3728,0.3762,0.3766,0.3777,0.3814,0.3816,0.3798,0.3799,0.38,0.3801,0,0,0,0,0,0,0,0.3615,0.3621,0.3677,0.3671,0.3674,0.368,0.3685,0.371,0.3736,0.371,0.3712,0.3717,0.3763,0.3774,0.3778,0.3817,0.3798,0.38,0.3801,0.3802,0.3873,0.3873,0,0,0,0,0,0,0.3608,0.3618,0.3676,0.3679,0.3645,0.3681,0.3687,0.37,0.3736,0.3741,0.3717,0.3718,0.377,0.3775,0.378,0.3807,0.38,0.3803,0.3804,0.3872,0.3873,0.3873,0,0,0,0,0,0,0.3607,0.3613,0.3674,0.3649,0.3657,0.3683,0.3697,0.3701,0.3712,0.3741,0.3746,0.3724,0.377,0.3777,0.3802,0.3809,0.3804,0.3806,0.3872,0.3873,0.3873,0.386,0,0,0,0,0,0,0.3604,0.3612,0.362,0.3649,0.3658,0.3694,0.3697,0.3702,0.3716,0.3717,0.3749,0.3754,0.377,0.3798,0.3805,0.3812,0.3808,0.3872,0.3872,0.3873,0.386,0.386,0.386,0,0,0,0,0,0.3601,0.3616,0.362,0.3627,0.3668,0.3694,0.37,0.3717,0.3717,0.3725,0.3743,0.3753,0.3807,0.3801,0.3808,0.3817,0.3871,0.3872,0.3873,0.386,0.386,0.386,0,0,0,0,0,0,0.359,0.362,0.3625,0.3649,0.3669,0.3697,0.3708,0.3716,0.3738,0.3738,0.376,0.3767,0.3791,0.3807,0.3799,0.3838,0.384,0.3842,0.3827,0.3828,0.3828,0.3824,0.381,0,0,0,0,0,0.3589,0.3606,0.3633,0.3651,0.3661,0.3682,0.3695,0.3706,0.3728,0.3737,0.3757,0.3779,0.3801,0.3815,0.3837,0.3862,0.3869,0.3871,0.3871,0.3871,0.3873,0.3887,0.3888,0.3876,0.3876,0.3876,0,0,0.359,0.3608,0.3619,0.3649,0.3666,0.3684,0.369,0.3709,0.3724,0.374,0.3765,0.3781,0.3807,0.3832,0.3844,0.3846,0.3878,0.3872,0.3872,0.3874,0.3887,0.3889,0.389,0.3876,0.3876,0.3876,0,0,0.36,0.3616,0.3632,0.3648,0.3672,0.3686,0.369,0.3717,0.3727,0.3752,0.3764,0.3782,0.382,0.3837,0.3851,0.3866,0.3875,0.3873,0.3873,0.3886,0.3887,0.3888,0.3893,0.3894,0.3874,0.3874,0.3874,0,0.3598,0.3625,0.364,0.3658,0.3672,0.3685,0.3702,0.3717,0.3748,0.3757,0.3758,0.3804,0.3823,0.3852,0.3855,0.3866,0.3871,0.3869,0.3885,0.3886,0.3887,0.3892,0.3894,0.3874,0.3874,0.3874,0.3874,0,0.3621,0.3639,0.365,0.3676,0.3691,0.3709,0.3728,0.3741,0.375,0.3764,0.3789,0.3812,0.3838,0.3846,0.3856,0.3876,0.3876,0.388,0.3882,0.3888,0.3893,0.3895,0.3873,0.3873,0.3873,0.3873,0,0,0.3626,0.3659,0.3663,0.3675,0.3701,0.3716,0.3735,0.3758,0.3768,0.3789,0.3805,0.3835,0.3839,0.3855,0.3867,0.3879,0.3888,0.3882,0.3883,0.3882,0.3911,0.3907,0.3909,0.3894,0.3895,0.3895,0.3908,0,0.364,0.3671,0.3685,0.3711,0.3728,0.374,0.3756,0.3774,0.3788,0.3805,0.3821,0.3842,0.3846,0.3855,0.3867,0.3884,0.3894,0.3884,0.391,0.3911,0.3903,0.3912,0.3908,0.392,0.3911,0.3911,0.3911,0,0.366,0.3678,0.3704,0.3727,0.3735,0.3749,0.3771,0.3787,0.3808,0.3817,0.3833,0.3845,0.3865,0.3865,0.3894,0.3886,0.3898,0.3908,0.3909,0.3913,0.3912,0.3916,0.3924,0.3926,0.3915,0.3914,0.3914,0,0.366,0.3691,0.3711,0.3721,0.3748,0.3757,0.3769,0.379,0.3803,0.3823,0.3831,0.3853,0.3866,0.3883,0.3901,0.3899,0.3928,0.3929,0.3937,0.3936,0.3943,0.3942,0.3954,0.395,0.395,0.395,0.395,0,0.3674,0.369,0.3711,0.3723,0.3741,0.3757,0.3775,0.3788,0.3806,0.3822,0.3835,0.3849,0.3871,0.3889,0.3903,0.3924,0.393,0.3939,0.3942,0.3938,0.3936,0.3946,0.3946,0.395,0.395,0.395,0.395,0,0.3678,0.3693,0.3715,0.3738,0.3744,0.3757,0.3777,0.379,0.3803,0.3823,0.3828,0.385,0.3871,0.389,0.3919,0.3928,0.395,0.3955,0.3942,0.3944,0.3951,0.395,0.3969,0.3972,0.3966,0.3966,0.3966,0,0.3686,0.3698,0.3722,0.3732,0.3743,0.376,0.3772,0.3788,0.3801,0.3825,0.3834,0.3856,0.3874,0.3908,0.3927,0.3949,0.3954,0.3959,0.3958,0.3952,0.3954,0.3953,0.3955,0.396,0.396,0.396,0.3959,0,0.3698,0.3704,0.372,0.3739,0.3752,0.3768,0.3785,0.3793,0.3812,0.3826,0.3846,0.386,0.3888,0.391,0.3933,0.3948,0.3957,0.3959,0.3962,0.3958,0.395,0.3954,0.3942,0.3959,0.3959,0.3959,0.3959,0.3959,0.3704,0.3715,0.3733,0.375,0.3763,0.3778,0.379,0.3804,0.3821,0.3844,0.3853,0.3874,0.3894,0.3926,0.394,0.3958,0.3959,0.3964,0.3965,0.3966,0.3965,0.3947,0.3962,0.3962,0.3962,0.3962,0.3962,0,0.3717,0.3728,0.3744,0.3765,0.3779,0.3784,0.3802,0.3813,0.3831,0.3848,0.3865,0.3889,0.3909,0.3929,0.3951,0.3961,0.3966,0.3966,0.3966,0.3969,0.3962,0.3957,0.3962,0.3962,0.3962,0.3962,0.3962,0.3962,0.3725,0.3743,0.3751,0.3776,0.3788,0.3807,0.3816,0.383,0.3844,0.3869,0.3885,0.3897,0.3915,0.3938,0.3958,0.3963,0.3971,0.397,0.3976,0.397,0.397,0.3969,0.3965,0.3971,0.3971,0.3982,0.3982,0.3982]}]]